Regional Weather Roundup
Issued by NWS Newport/Morehead, NC

Current Version | Previous Version | Graphics & Text | Print | Product List | Glossary Off
Versions: 1 2 3 4 5 6 7 8 9 10 11 12 13 14 15 16 17 18 19 20 21 22 23 24 25 26 27 28 29 30 31 32 33 34 35 36 37 38 39 40 41 42 43 44 45 46 47 48 49 50
000 ASUS42 KMHX 280912 RWRMHX WEATHER ROUNDUP FOR EASTERN NORTH CAROLINA NATIONAL WEATHER SERVICE NEWPORT/MOREHEAD CITY NC 500 AM EDT SAT MAR 28 2015 NOTE: "FAIR" INDICATES FEW OR NO CLOUDS BELOW 12,000 FEET WITH NO SIGNIFICANT WEATHER AND/OR OBSTRUCTIONS TO VISIBILITY NCZ015>017-031-032-045>047-102-103-281000- NORTH COAST CITY SKY/WX TMP DP RH WIND PRES REMARKS EDENTON MOCLDY 40 37 87 NW9G16 29.81S ELIZABETH CITY PTCLDY 39 36 89 W13 29.80R KITTY HAWK CLOUDY 42 38 88 NW12G20 29.77R MANTEO CLOUDY 42 37 83 NW14G21 29.78R $$ NCZ045>047-081-094-103-104-281000- CENTRAL COAST CITY SKY/WX TMP DP RH WIND PRES REMARKS FRISCO CLOUDY 43 36 76 NW9G18 29.78R SWANQUARTER N/A 39 N/A N/A NW8G16 29.77S $$ NCZ095-097-098-100-101-281000- SOUTHERN COAST CITY SKY/WX TMP DP RH WIND PRES REMARKS BEAUFORT MOCLDY 43 38 82 N16 29.84R CEDAR ISLAND N/A 45 N/A N/A NW17G28 29.85R JACKSONVILLE PTCLDY 40 37 89 NW7 29.87R PINEY ISLAND CLOUDY N/A N/A N/A NW15 29.83R WILMINGTON CLOUDY 44 40 85 W10 29.88R $$ NCZ011>013-027>030-043-044-078>080-089-090>093-098-281000- COASTAL PLAIN CITY SKY/WX TMP DP RH WIND PRES REMARKS AHOSKIE CLOUDY 38 35 87 N5 29.86R CLINTON DRIZZLE 41 40 95 W3 29.89S ELIZABETHTOWN RAIN 44 43 98 W7 29.88R GOLDSBORO MOCLDY 41 41 99 NW12 29.86R GREENVILLE DRIZZLE 41 37 87 NW8 29.89R HAVELOCK CLOUDY 41 36 82 NW8 29.85R KENANSVILLE DRIZZLE 41 39 92 W3 29.88R KINSTON DRIZZLE 41 39 93 CALM 29.88R NEW BERN MOCLDY 41 37 86 NW9 29.87R RICHLANDS CLOUDY 39 36 87 W3 29.87R ROCKY MOUNT LGT RAIN 38 35 89 N15G25 29.89R WASHINGTON MOCLDY 39 37 90 NW5 29.85R WHITEVILLE DRIZZLE 45 41 88 W3 29.88S $$ AMZ130-135-150-152-154-156-158-170-250-252-270-ANZ085-086-088-633-658-670-281000- MARINE OBSERVATIONS STATION/POSITION TIME TEMP WIND PRES WAVE SWELL AIR SEA DIR/SP/G HT/PER HT/PER (UTC) (F) (DEG/KT/KT) (MB) (FT/S) (FT/S) CHESAPEAKE LIGHT 0800 41 330/ 17/ 18 1007.9 64 E VA BEACH 0850 44 56 340/ 21/ 27 1005.1 10/ 8 DUCK 0800 42 41 330/ 14/ 17 1006.6 2 E DUCK 0811 42 N/A 6/ 7 2/11 10 NE DUCK NOT AVBL OREGON INLET 0800 40 45 330/ 11/ 16 1007.3 HATTERAS CG 0800 44 54 350/ 23/ 28 1007.9 CAPE LOOKOUT 0900 44 330/ 16/ 19 1010.0 BEAUFORT LAB 0800 44 57 340/ 9/ 16 1008.6 27 SE WRIGHTSVLE 0800 44 64 340/ 17/ 21 1011.8 5 SE WRIGHTSVLE 0800 46 56 330/ 17/ 21 1010.5 225 S CAPE HAT 0850 66 69 290/ 27/ 35 1006.7 13/ 8 41 SE CHARLESTON 0850 53 68 320/ 17/ 21 1012.1 5/ 8 2/ 8 $$

USA.gov is the U.S. government's official web portal to all federal, state and local government web resources and services.